Information on these data can be found in provided Readme document
Contact Info: Zachary Fasnacht (zachary.fasnacht@ssaihq.com); Nickolay Krotkov (nickolay.a.krotkov@nasa.gov); Lok Lamsal (lok.lamsal@nasa.gov)

FillValue: -999.
ScaleFactor: 1e15
Units: molecules/cm^2

Date(yyyy-mm-dd),City,Country,LonCenter,LatCenter,BoundingCoordinates,Median,Q1,Q3,Mean,Baseline_Median,Baseline_Q1,Baseline_Q3,Baseline_Mean,NumGoodSamples,NumTotalSamples
2015-01-01,WashingtonD.C.,USA,-77.0333,38.8833,[-77.5333 38.3833 -76.5333 39.3833],5.927,4.215,8.36,6.383,5.65,3.877,7.725,5.882,122.0,582.0
2015-01-02,WashingtonD.C.,USA,-77.0333,38.8833,[-77.5333 38.3833 -76.5333 39.3833],5.927,4.361,8.396,6.53,5.7,3.947,7.81,6.108,133.0,585.0
2015-01-03,WashingtonD.C.,USA,-77.0333,38.8833,[-77.5333 38.3833 -76.5333 39.3833],6.047,4.941,8.209,6.599,5.659,4.051,7.512,6.0,116.0,592.0
2015-01-04,WashingtonD.C.,USA,-77.0333,38.8833,[-77.5333 38.3833 -76.5333 39.3833],6.443,5.059,8.396,7.132,5.653,4.273,7.333,6.05,143.0,597.0
2015-01-05,WashingtonD.C.,USA,-77.0333,38.8833,[-77.5333 38.3833 -76.5333 39.3833],6.443,5.059,8.396,7.132,5.711,4.34,7.425,6.141,143.0,587.0
2015-01-06,WashingtonD.C.,USA,-77.0333,38.8833,[-77.5333 38.3833 -76.5333 39.3833],6.5,4.956,8.505,7.247,5.562,4.242,7.231,6.072,170.0,583.0
2015-01-07,WashingtonD.C.,USA,-77.0333,38.8833,[-77.5333 38.3833 -76.5333 39.3833],6.047,4.941,8.209,7.075,5.392,4.124,7.104,5.908,133.0,582.0
2015-01-08,WashingtonD.C.,USA,-77.0333,38.8833,[-77.5333 38.3833 -76.5333 39.3833],6.443,5.161,8.505,7.482,5.552,4.233,7.21,6.098,155.0,580.0
2015-01-09,WashingtonD.C.,USA,-77.0333,38.8833,[-77.5333 38.3833 -76.5333 39.3833],7.199,5.82,9.958,8.289,5.638,4.311,7.417,6.182,119.0,541.0
2015-01-10,WashingtonD.C.,USA,-77.0333,38.8833,[-77.5333 38.3833 -76.5333 39.3833],7.004,5.733,8.557,7.814,5.894,4.643,7.548,6.435,155.0,544.0
2015-01-11,WashingtonD.C.,USA,-77.0333,38.8833,[-77.5333 38.3833 -76.5333 39.3833],7.004,5.733,8.557,7.814,5.808,4.582,7.238,6.285,155.0,547.0
2015-01-12,WashingtonD.C.,USA,-77.0333,38.8833,[-77.5333 38.3833 -76.5333 39.3833],7.004,5.733,8.557,7.814,5.719,4.509,7.128,6.174,155.0,549.0
2015-01-13,WashingtonD.C.,USA,-77.0333,38.8833,[-77.5333 38.3833 -76.5333 39.3833],7.004,5.733,8.557,7.838,5.699,4.468,7.021,6.137,161.0,541.0
2015-01-14,WashingtonD.C.,USA,-77.0333,38.8833,[-77.5333 38.3833 -76.5333 39.3833],7.004,5.733,8.557,7.838,5.611,4.428,6.996,6.212,161.0,534.0
2015-01-15,WashingtonD.C.,USA,-77.0333,38.8833,[-77.5333 38.3833 -76.5333 39.3833],7.199,5.82,9.123,7.942,5.827,4.551,7.241,6.364,173.0,537.0
2015-01-16,WashingtonD.C.,USA,-77.0333,38.8833,[-77.5333 38.3833 -76.5333 39.3833],7.213,5.82,9.58,8.143,5.798,4.538,7.319,6.409,153.0,543.0
2015-01-17,WashingtonD.C.,USA,-77.0333,38.8833,[-77.5333 38.3833 -76.5333 39.3833],7.213,5.82,9.58,8.073,5.817,4.591,7.347,6.33,141.0,542.0
2015-01-18,WashingtonD.C.,USA,-77.0333,38.8833,[-77.5333 38.3833 -76.5333 39.3833],7.787,6.084,9.983,8.468,5.878,4.535,7.55,6.379,131.0,543.0
2015-01-19,WashingtonD.C.,USA,-77.0333,38.8833,[-77.5333 38.3833 -76.5333 39.3833],7.42,6.084,9.754,7.973,5.92,4.482,7.757,6.384,104.0,549.0
2015-01-20,WashingtonD.C.,USA,-77.0333,38.8833,[-77.5333 38.3833 -76.5333 39.3833],7.42,6.017,9.608,7.945,5.909,4.459,7.731,6.381,110.0,551.0
2015-01-21,WashingtonD.C.,USA,-77.0333,38.8833,[-77.5333 38.3833 -76.5333 39.3833],7.386,6.187,9.176,7.95,6.129,4.523,7.807,6.589,83.0,545.0
2015-01-22,WashingtonD.C.,USA,-77.0333,38.8833,[-77.5333 38.3833 -76.5333 39.3833],7.386,6.187,9.176,7.95,6.106,4.491,7.857,6.651,83.0,543.0
2015-01-23,WashingtonD.C.,USA,-77.0333,38.8833,[-77.5333 38.3833 -76.5333 39.3833],7.028,5.765,8.46,7.245,5.905,4.239,7.661,6.465,61.0,542.0
2015-01-24,WashingtonD.C.,USA,-77.0333,38.8833,[-77.5333 38.3833 -76.5333 39.3833],6.591,5.47,7.918,6.789,5.948,4.358,7.571,6.419,98.0,584.0
2015-01-25,WashingtonD.C.,USA,-77.0333,38.8833,[-77.5333 38.3833 -76.5333 39.3833],6.617,5.096,7.86,6.992,5.879,4.163,7.59,6.416,62.0,589.0
2015-01-26,WashingtonD.C.,USA,-77.0333,38.8833,[-77.5333 38.3833 -76.5333 39.3833],6.839,5.316,8.268,7.159,6.695,4.459,9.099,7.112,65.0,589.0
2015-01-27,WashingtonD.C.,USA,-77.0333,38.8833,[-77.5333 38.3833 -76.5333 39.3833],6.839,5.47,8.074,7.122,6.235,4.332,8.679,6.847,96.0,593.0
2015-01-28,WashingtonD.C.,USA,-77.0333,38.8833,[-77.5333 38.3833 -76.5333 39.3833],6.799,5.316,8.074,7.05,6.369,4.334,8.621,6.831,91.0,596.0
2015-01-29,WashingtonD.C.,USA,-77.0333,38.8833,[-77.5333 38.3833 -76.5333 39.3833],6.617,4.996,8.045,6.853,6.637,5.0,8.712,7.044,115.0,587.0
2015-01-30,WashingtonD.C.,USA,-77.0333,38.8833,[-77.5333 38.3833 -76.5333 39.3833],6.295,4.75,7.547,6.413,6.579,4.939,8.626,6.994,103.0,577.0
2015-01-31,WashingtonD.C.,USA,-77.0333,38.8833,[-77.5333 38.3833 -76.5333 39.3833],5.961,4.748,7.477,6.254,6.528,4.951,8.535,6.947,109.0,579.0
2015-02-01,WashingtonD.C.,USA,-77.0333,38.8833,[-77.5333 38.3833 -76.5333 39.3833],5.961,4.748,7.477,6.254,6.843,4.964,8.609,7.021,109.0,584.0
2015-02-02,WashingtonD.C.,USA,-77.0333,38.8833,[-77.5333 38.3833 -76.5333 39.3833],5.961,4.748,7.477,6.243,7.009,4.694,8.745,7.035,108.0,581.0
2015-02-03,WashingtonD.C.,USA,-77.0333,38.8833,[-77.5333 38.3833 -76.5333 39.3833],5.961,4.748,7.477,6.243,6.979,4.724,8.706,7.04,108.0,583.0
2015-02-04,WashingtonD.C.,USA,-77.0333,38.8833,[-77.5333 38.3833 -76.5333 39.3833],6.262,4.766,7.396,6.335,6.983,4.751,8.556,7.035,113.0,590.0
2015-02-05,WashingtonD.C.,USA,-77.0333,38.8833,[-77.5333 38.3833 -76.5333 39.3833],6.262,4.766,7.396,6.335,6.979,4.788,8.617,7.031,113.0,592.0
2015-02-06,WashingtonD.C.,USA,-77.0333,38.8833,[-77.5333 38.3833 -76.5333 39.3833],6.262,4.766,7.396,6.335,6.974,4.691,8.665,7.049,113.0,583.0
2015-02-07,WashingtonD.C.,USA,-77.0333,38.8833,[-77.5333 38.3833 -76.5333 39.3833],6.262,4.766,7.396,6.335,6.815,4.288,8.613,6.833,113.0,579.0
2015-02-08,WashingtonD.C.,USA,-77.0333,38.8833,[-77.5333 38.3833 -76.5333 39.3833],6.295,4.766,7.396,6.48,6.852,4.04,8.825,6.868,76.0,579.0
2015-02-09,WashingtonD.C.,USA,-77.0333,38.8833,[-77.5333 38.3833 -76.5333 39.3833],6.295,4.766,7.396,6.48,6.756,4.039,8.758,6.828,76.0,577.0
2015-02-10,WashingtonD.C.,USA,-77.0333,38.8833,[-77.5333 38.3833 -76.5333 39.3833],6.262,4.766,7.396,6.276,6.463,3.903,8.68,6.636,73.0,539.0
2015-02-11,WashingtonD.C.,USA,-77.0333,38.8833,[-77.5333 38.3833 -76.5333 39.3833],6.262,4.748,7.248,6.089,6.639,4.277,8.943,6.877,42.0,542.0
2015-02-12,WashingtonD.C.,USA,-77.0333,38.8833,[-77.5333 38.3833 -76.5333 39.3833],6.262,4.748,7.248,6.074,6.13,4.008,8.329,6.441,41.0,548.0
2015-02-13,WashingtonD.C.,USA,-77.0333,38.8833,[-77.5333 38.3833 -76.5333 39.3833],6.262,4.79,7.248,6.168,5.262,3.246,7.596,5.841,17.0,551.0
2015-02-14,WashingtonD.C.,USA,-77.0333,38.8833,[-77.5333 38.3833 -76.5333 39.3833],6.262,4.79,7.248,6.168,5.153,3.226,7.562,5.738,17.0,543.0
2015-02-15,WashingtonD.C.,USA,-77.0333,38.8833,[-77.5333 38.3833 -76.5333 39.3833],7.114,5.333,7.396,6.608,5.298,3.302,7.89,5.913,11.0,532.0
2015-02-16,WashingtonD.C.,USA,-77.0333,38.8833,[-77.5333 38.3833 -76.5333 39.3833],7.248,5.651,9.6,7.831,4.681,3.097,7.604,5.802,18.0,533.0
2015-02-17,WashingtonD.C.,USA,-77.0333,38.8833,[-77.5333 38.3833 -76.5333 39.3833],7.248,5.651,9.6,7.831,4.803,3.006,7.995,5.835,18.0,540.0
2015-02-18,WashingtonD.C.,USA,-77.0333,38.8833,[-77.5333 38.3833 -76.5333 39.3833],7.114,5.651,9.292,7.74,4.538,3.057,7.099,5.435,21.0,538.0
2015-02-19,WashingtonD.C.,USA,-77.0333,38.8833,[-77.5333 38.3833 -76.5333 39.3833],9.6,5.509,11.31,9.193,4.875,3.175,6.898,5.492,15.0,540.0
2015-02-20,WashingtonD.C.,USA,-77.0333,38.8833,[-77.5333 38.3833 -76.5333 39.3833],5.916,5.407,11.31,8.277,4.835,3.258,7.212,5.639,18.0,544.0
2015-02-21,WashingtonD.C.,USA,-77.0333,38.8833,[-77.5333 38.3833 -76.5333 39.3833],9.6,5.407,13.71,10.721,4.654,2.762,7.098,5.351,31.0,547.0
2015-02-22,WashingtonD.C.,USA,-77.0333,38.8833,[-77.5333 38.3833 -76.5333 39.3833],9.6,5.407,13.71,10.721,4.834,2.764,7.279,5.515,31.0,540.0
2015-02-23,WashingtonD.C.,USA,-77.0333,38.8833,[-77.5333 38.3833 -76.5333 39.3833],5.509,2.915,9.689,7.762,4.739,2.813,6.912,5.373,57.0,538.0
2015-02-24,WashingtonD.C.,USA,-77.0333,38.8833,[-77.5333 38.3833 -76.5333 39.3833],5.509,2.915,9.689,7.762,4.596,2.874,6.49,5.211,57.0,538.0
2015-02-25,WashingtonD.C.,USA,-77.0333,38.8833,[-77.5333 38.3833 -76.5333 39.3833],5.509,2.915,9.689,7.762,4.476,2.837,6.224,4.916,57.0,581.0
2015-02-26,WashingtonD.C.,USA,-77.0333,38.8833,[-77.5333 38.3833 -76.5333 39.3833],5.509,2.915,9.689,7.762,4.354,2.77,5.948,4.708,57.0,586.0
2015-02-27,WashingtonD.C.,USA,-77.0333,38.8833,[-77.5333 38.3833 -76.5333 39.3833],5.509,3.162,9.686,7.854,4.491,2.982,6.332,5.051,63.0,587.0
2015-02-28,WashingtonD.C.,USA,-77.0333,38.8833,[-77.5333 38.3833 -76.5333 39.3833],5.509,2.915,9.686,7.698,4.536,3.044,6.512,5.166,67.0,593.0
2015-03-01,WashingtonD.C.,USA,-77.0333,38.8833,[-77.5333 38.3833 -76.5333 39.3833],5.509,2.915,9.686,7.698,4.533,3.044,6.497,5.151,67.0,595.0
2015-03-02,WashingtonD.C.,USA,-77.0333,38.8833,[-77.5333 38.3833 -76.5333 39.3833],6.466,3.291,9.689,8.132,4.723,3.221,6.651,5.268,90.0,586.0
2015-03-03,WashingtonD.C.,USA,-77.0333,38.8833,[-77.5333 38.3833 -76.5333 39.3833],5.529,2.915,8.974,7.647,4.564,3.107,6.451,5.09,83.0,578.0
2015-03-04,WashingtonD.C.,USA,-77.0333,38.8833,[-77.5333 38.3833 -76.5333 39.3833],5.529,2.915,8.974,7.647,4.621,3.174,6.465,5.141,83.0,578.0
2015-03-05,WashingtonD.C.,USA,-77.0333,38.8833,[-77.5333 38.3833 -76.5333 39.3833],5.456,2.915,8.974,7.704,4.708,3.203,6.644,5.218,80.0,584.0
2015-03-06,WashingtonD.C.,USA,-77.0333,38.8833,[-77.5333 38.3833 -76.5333 39.3833],6.124,3.238,8.679,7.426,4.595,3.255,6.55,5.218,86.0,581.0
2015-03-07,WashingtonD.C.,USA,-77.0333,38.8833,[-77.5333 38.3833 -76.5333 39.3833],6.654,3.162,8.679,7.581,4.623,3.242,6.461,5.122,83.0,584.0
2015-03-08,WashingtonD.C.,USA,-77.0333,38.8833,[-77.5333 38.3833 -76.5333 39.3833],6.466,2.805,8.622,6.308,4.87,3.443,6.677,5.183,70.0,591.0
2015-03-09,WashingtonD.C.,USA,-77.0333,38.8833,[-77.5333 38.3833 -76.5333 39.3833],6.277,3.452,8.622,6.43,4.917,3.555,6.893,5.271,97.0,594.0
2015-03-10,WashingtonD.C.,USA,-77.0333,38.8833,[-77.5333 38.3833 -76.5333 39.3833],6.734,4.125,8.974,7.509,5.152,3.641,6.879,5.47,71.0,585.0
2015-03-11,WashingtonD.C.,USA,-77.0333,38.8833,[-77.5333 38.3833 -76.5333 39.3833],5.77,3.561,7.92,6.427,5.146,3.657,7.02,5.499,102.0,582.0
2015-03-12,WashingtonD.C.,USA,-77.0333,38.8833,[-77.5333 38.3833 -76.5333 39.3833],5.77,3.561,7.92,6.427,5.408,3.824,7.464,5.932,102.0,581.0
2015-03-13,WashingtonD.C.,USA,-77.0333,38.8833,[-77.5333 38.3833 -76.5333 39.3833],5.77,3.561,7.92,6.427,5.921,4.072,8.129,6.311,102.0,579.0
2015-03-14,WashingtonD.C.,USA,-77.0333,38.8833,[-77.5333 38.3833 -76.5333 39.3833],5.631,3.561,7.849,6.3,5.828,4.085,8.178,6.315,96.0,540.0
2015-03-15,WashingtonD.C.,USA,-77.0333,38.8833,[-77.5333 38.3833 -76.5333 39.3833],4.674,3.561,6.734,5.557,5.578,4.006,7.716,6.119,121.0,543.0
2015-03-16,WashingtonD.C.,USA,-77.0333,38.8833,[-77.5333 38.3833 -76.5333 39.3833],4.966,3.561,7.565,6.018,5.648,4.076,7.593,6.182,150.0,549.0
2015-03-17,WashingtonD.C.,USA,-77.0333,38.8833,[-77.5333 38.3833 -76.5333 39.3833],4.674,3.561,6.654,5.524,5.295,3.881,7.291,5.955,127.0,554.0
2015-03-18,WashingtonD.C.,USA,-77.0333,38.8833,[-77.5333 38.3833 -76.5333 39.3833],4.687,3.561,6.654,5.519,5.318,3.803,7.233,5.89,131.0,546.0
2015-03-19,WashingtonD.C.,USA,-77.0333,38.8833,[-77.5333 38.3833 -76.5333 39.3833],4.687,3.561,6.654,5.519,5.372,3.914,7.236,5.924,131.0,536.0
2015-03-20,WashingtonD.C.,USA,-77.0333,38.8833,[-77.5333 38.3833 -76.5333 39.3833],4.687,3.561,6.654,5.519,5.4,3.926,7.405,6.021,131.0,535.0
2015-03-21,WashingtonD.C.,USA,-77.0333,38.8833,[-77.5333 38.3833 -76.5333 39.3833],4.656,3.44,6.385,5.413,5.38,3.845,7.258,5.952,120.0,541.0
2015-03-22,WashingtonD.C.,USA,-77.0333,38.8833,[-77.5333 38.3833 -76.5333 39.3833],4.125,3.072,5.191,4.708,5.24,3.725,7.016,5.761,152.0,544.0
2015-03-23,WashingtonD.C.,USA,-77.0333,38.8833,[-77.5333 38.3833 -76.5333 39.3833],4.053,2.994,5.191,4.592,5.11,3.626,6.778,5.577,166.0,544.0
2015-03-24,WashingtonD.C.,USA,-77.0333,38.8833,[-77.5333 38.3833 -76.5333 39.3833],4.053,3.072,5.191,4.493,5.06,3.545,6.684,5.435,148.0,553.0
2015-03-25,WashingtonD.C.,USA,-77.0333,38.8833,[-77.5333 38.3833 -76.5333 39.3833],3.995,3.072,5.191,4.449,4.906,3.444,6.453,5.34,176.0,556.0
2015-03-26,WashingtonD.C.,USA,-77.0333,38.8833,[-77.5333 38.3833 -76.5333 39.3833],4.053,3.072,5.16,4.436,4.959,3.401,6.605,5.418,145.0,548.0
2015-03-27,WashingtonD.C.,USA,-77.0333,38.8833,[-77.5333 38.3833 -76.5333 39.3833],4.053,3.072,5.16,4.436,4.74,3.232,6.458,5.066,145.0,542.0
2015-03-28,WashingtonD.C.,USA,-77.0333,38.8833,[-77.5333 38.3833 -76.5333 39.3833],4.053,3.072,5.16,4.436,4.61,2.925,6.278,4.818,145.0,542.0
2015-03-29,WashingtonD.C.,USA,-77.0333,38.8833,[-77.5333 38.3833 -76.5333 39.3833],3.744,2.402,4.84,3.953,4.25,2.656,5.853,4.468,175.0,587.0
2015-03-30,WashingtonD.C.,USA,-77.0333,38.8833,[-77.5333 38.3833 -76.5333 39.3833],3.539,2.373,4.84,3.945,4.063,2.55,5.756,4.371,146.0,589.0
2015-03-31,WashingtonD.C.,USA,-77.0333,38.8833,[-77.5333 38.3833 -76.5333 39.3833],3.367,2.27,4.37,3.321,3.788,2.435,5.256,3.982,117.0,594.0
2015-04-01,WashingtonD.C.,USA,-77.0333,38.8833,[-77.5333 38.3833 -76.5333 39.3833],3.367,2.27,4.37,3.321,3.676,2.357,4.828,3.864,117.0,599.0
2015-04-02,WashingtonD.C.,USA,-77.0333,38.8833,[-77.5333 38.3833 -76.5333 39.3833],3.358,2.27,4.292,3.292,3.664,2.333,4.781,3.809,113.0,601.0
2015-04-03,WashingtonD.C.,USA,-77.0333,38.8833,[-77.5333 38.3833 -76.5333 39.3833],3.358,2.27,4.292,3.292,3.395,2.231,4.548,3.523,113.0,596.0
2015-04-04,WashingtonD.C.,USA,-77.0333,38.8833,[-77.5333 38.3833 -76.5333 39.3833],3.358,2.27,4.292,3.292,3.183,2.156,4.206,3.18,113.0,589.0
2015-04-05,WashingtonD.C.,USA,-77.0333,38.8833,[-77.5333 38.3833 -76.5333 39.3833],3.302,2.221,4.308,3.263,3.175,2.152,4.201,3.156,153.0,587.0
2015-04-06,WashingtonD.C.,USA,-77.0333,38.8833,[-77.5333 38.3833 -76.5333 39.3833],3.164,2.122,4.37,3.325,3.116,2.156,4.148,3.141,121.0,588.0
2015-04-07,WashingtonD.C.,USA,-77.0333,38.8833,[-77.5333 38.3833 -76.5333 39.3833],3.358,2.221,4.607,3.402,3.1,2.177,4.19,3.15,107.0,590.0
2015-04-08,WashingtonD.C.,USA,-77.0333,38.8833,[-77.5333 38.3833 -76.5333 39.3833],2.803,1.97,3.838,3.037,3.147,2.127,4.206,3.214,104.0,589.0
2015-04-09,WashingtonD.C.,USA,-77.0333,38.8833,[-77.5333 38.3833 -76.5333 39.3833],2.803,1.97,3.824,3.028,3.287,2.276,4.315,3.333,87.0,594.0
2015-04-10,WashingtonD.C.,USA,-77.0333,38.8833,[-77.5333 38.3833 -76.5333 39.3833],2.842,1.97,3.971,3.045,3.364,2.366,4.412,3.422,96.0,597.0
2015-04-11,WashingtonD.C.,USA,-77.0333,38.8833,[-77.5333 38.3833 -76.5333 39.3833],2.842,1.97,3.971,3.045,3.466,2.501,4.542,3.546,96.0,593.0
2015-04-12,WashingtonD.C.,USA,-77.0333,38.8833,[-77.5333 38.3833 -76.5333 39.3833],2.971,1.97,4.021,3.091,3.72,2.774,4.843,3.804,100.0,587.0
2015-04-13,WashingtonD.C.,USA,-77.0333,38.8833,[-77.5333 38.3833 -76.5333 39.3833],3.085,2.316,4.628,3.52,3.878,2.823,5.078,3.946,70.0,584.0
2015-04-14,WashingtonD.C.,USA,-77.0333,38.8833,[-77.5333 38.3833 -76.5333 39.3833],3.302,2.554,4.607,3.575,3.981,2.858,5.131,4.009,105.0,585.0
2015-04-15,WashingtonD.C.,USA,-77.0333,38.8833,[-77.5333 38.3833 -76.5333 39.3833],3.302,2.554,4.607,3.575,3.945,2.832,5.083,3.952,105.0,541.0
2015-04-16,WashingtonD.C.,USA,-77.0333,38.8833,[-77.5333 38.3833 -76.5333 39.3833],3.176,2.554,4.584,3.563,4.038,2.881,5.22,4.03,109.0,542.0
2015-04-17,WashingtonD.C.,USA,-77.0333,38.8833,[-77.5333 38.3833 -76.5333 39.3833],3.402,2.596,4.693,3.668,4.038,2.866,5.238,4.044,138.0,548.0
2015-04-18,WashingtonD.C.,USA,-77.0333,38.8833,[-77.5333 38.3833 -76.5333 39.3833],3.402,2.596,4.693,3.668,4.035,2.889,5.267,4.09,138.0,548.0
2015-04-19,WashingtonD.C.,USA,-77.0333,38.8833,[-77.5333 38.3833 -76.5333 39.3833],3.504,2.645,4.772,3.835,4.035,2.921,5.26,4.131,160.0,540.0
2015-04-20,WashingtonD.C.,USA,-77.0333,38.8833,[-77.5333 38.3833 -76.5333 39.3833],3.75,2.913,5.292,4.091,4.114,2.93,5.378,4.174,120.0,534.0
2015-04-21,WashingtonD.C.,USA,-77.0333,38.8833,[-77.5333 38.3833 -76.5333 39.3833],3.838,2.986,4.928,4.077,4.249,3.063,5.444,4.265,148.0,539.0
2015-04-22,WashingtonD.C.,USA,-77.0333,38.8833,[-77.5333 38.3833 -76.5333 39.3833],3.838,2.986,4.928,4.077,4.197,3.044,5.376,4.219,148.0,541.0
2015-04-23,WashingtonD.C.,USA,-77.0333,38.8833,[-77.5333 38.3833 -76.5333 39.3833],3.838,2.986,4.828,3.999,4.065,2.892,5.268,4.055,142.0,538.0
2015-04-24,WashingtonD.C.,USA,-77.0333,38.8833,[-77.5333 38.3833 -76.5333 39.3833],3.95,3.158,4.875,4.128,3.974,2.829,5.169,3.974,131.0,541.0
2015-04-25,WashingtonD.C.,USA,-77.0333,38.8833,[-77.5333 38.3833 -76.5333 39.3833],3.721,2.885,4.584,3.868,3.905,2.744,5.096,3.92,136.0,544.0
2015-04-26,WashingtonD.C.,USA,-77.0333,38.8833,[-77.5333 38.3833 -76.5333 39.3833],3.504,2.592,4.349,3.727,3.625,2.542,4.892,3.706,161.0,577.0
2015-04-27,WashingtonD.C.,USA,-77.0333,38.8833,[-77.5333 38.3833 -76.5333 39.3833],3.504,2.592,4.328,3.684,3.479,2.479,4.513,3.509,175.0,570.0
2015-04-28,WashingtonD.C.,USA,-77.0333,38.8833,[-77.5333 38.3833 -76.5333 39.3833],3.711,2.685,4.337,3.766,3.47,2.482,4.435,3.492,198.0,568.0
2015-04-29,WashingtonD.C.,USA,-77.0333,38.8833,[-77.5333 38.3833 -76.5333 39.3833],3.721,2.592,4.337,3.797,3.431,2.485,4.44,3.465,163.0,566.0
2015-04-30,WashingtonD.C.,USA,-77.0333,38.8833,[-77.5333 38.3833 -76.5333 39.3833],3.252,2.257,4.13,3.364,3.309,2.451,4.361,3.388,199.0,610.0
2015-05-01,WashingtonD.C.,USA,-77.0333,38.8833,[-77.5333 38.3833 -76.5333 39.3833],3.252,2.214,4.13,3.369,3.368,2.464,4.384,3.422,195.0,615.0
2015-05-02,WashingtonD.C.,USA,-77.0333,38.8833,[-77.5333 38.3833 -76.5333 39.3833],2.823,1.769,3.867,3.014,3.277,2.338,4.329,3.344,194.0,616.0
2015-05-03,WashingtonD.C.,USA,-77.0333,38.8833,[-77.5333 38.3833 -76.5333 39.3833],2.794,1.769,3.865,2.975,3.23,2.291,4.337,3.329,212.0,623.0
2015-05-04,WashingtonD.C.,USA,-77.0333,38.8833,[-77.5333 38.3833 -76.5333 39.3833],2.566,1.751,3.721,2.745,3.173,2.298,4.251,3.258,200.0,626.0
2015-05-05,WashingtonD.C.,USA,-77.0333,38.8833,[-77.5333 38.3833 -76.5333 39.3833],2.52,1.721,3.721,2.703,3.129,2.236,4.223,3.22,223.0,620.0
2015-05-06,WashingtonD.C.,USA,-77.0333,38.8833,[-77.5333 38.3833 -76.5333 39.3833],2.323,1.615,3.345,2.528,3.011,2.106,4.044,3.09,197.0,609.0
2015-05-07,WashingtonD.C.,USA,-77.0333,38.8833,[-77.5333 38.3833 -76.5333 39.3833],2.621,1.751,3.406,2.68,3.024,2.189,3.868,3.093,239.0,611.0
2015-05-08,WashingtonD.C.,USA,-77.0333,38.8833,[-77.5333 38.3833 -76.5333 39.3833],2.621,1.751,3.406,2.68,2.899,2.096,3.823,3.009,239.0,615.0
2015-05-09,WashingtonD.C.,USA,-77.0333,38.8833,[-77.5333 38.3833 -76.5333 39.3833],2.468,1.732,3.345,2.599,2.786,1.958,3.794,2.923,269.0,612.0
2015-05-10,WashingtonD.C.,USA,-77.0333,38.8833,[-77.5333 38.3833 -76.5333 39.3833],2.33,1.615,3.333,2.534,2.61,1.783,3.578,2.743,272.0,617.0
2015-05-11,WashingtonD.C.,USA,-77.0333,38.8833,[-77.5333 38.3833 -76.5333 39.3833],2.52,1.679,3.455,2.586,2.52,1.731,3.633,2.704,256.0,588.0
2015-05-12,WashingtonD.C.,USA,-77.0333,38.8833,[-77.5333 38.3833 -76.5333 39.3833],2.52,1.618,3.427,2.584,2.584,1.747,3.557,2.713,263.0,592.0
2015-05-13,WashingtonD.C.,USA,-77.0333,38.8833,[-77.5333 38.3833 -76.5333 39.3833],2.303,1.615,3.329,2.475,2.449,1.688,3.483,2.634,258.0,582.0
2015-05-14,WashingtonD.C.,USA,-77.0333,38.8833,[-77.5333 38.3833 -76.5333 39.3833],2.303,1.615,3.329,2.475,2.483,1.768,3.716,2.741,258.0,580.0
2015-05-15,WashingtonD.C.,USA,-77.0333,38.8833,[-77.5333 38.3833 -76.5333 39.3833],2.562,1.73,3.365,2.558,2.533,1.754,3.653,2.733,222.0,579.0
2015-05-16,WashingtonD.C.,USA,-77.0333,38.8833,[-77.5333 38.3833 -76.5333 39.3833],2.313,1.633,3.296,2.454,2.351,1.683,3.418,2.582,258.0,576.0
2015-05-17,WashingtonD.C.,USA,-77.0333,38.8833,[-77.5333 38.3833 -76.5333 39.3833],2.555,1.73,3.316,2.538,2.415,1.722,3.414,2.582,230.0,537.0
2015-05-18,WashingtonD.C.,USA,-77.0333,38.8833,[-77.5333 38.3833 -76.5333 39.3833],2.522,1.801,3.292,2.548,2.396,1.729,3.385,2.536,245.0,536.0
2015-05-19,WashingtonD.C.,USA,-77.0333,38.8833,[-77.5333 38.3833 -76.5333 39.3833],2.484,1.768,3.288,2.515,2.389,1.745,3.248,2.515,259.0,541.0
2015-05-20,WashingtonD.C.,USA,-77.0333,38.8833,[-77.5333 38.3833 -76.5333 39.3833],2.515,1.793,3.282,2.531,2.386,1.748,3.24,2.516,247.0,542.0
2015-05-21,WashingtonD.C.,USA,-77.0333,38.8833,[-77.5333 38.3833 -76.5333 39.3833],2.522,1.768,3.253,2.518,2.448,1.783,3.228,2.539,266.0,533.0
2015-05-22,WashingtonD.C.,USA,-77.0333,38.8833,[-77.5333 38.3833 -76.5333 39.3833],2.289,1.73,2.862,2.344,2.328,1.694,3.056,2.449,224.0,523.0
2015-05-23,WashingtonD.C.,USA,-77.0333,38.8833,[-77.5333 38.3833 -76.5333 39.3833],2.205,1.73,2.925,2.363,2.352,1.757,3.084,2.497,257.0,529.0
2015-05-24,WashingtonD.C.,USA,-77.0333,38.8833,[-77.5333 38.3833 -76.5333 39.3833],2.322,1.768,2.99,2.41,2.376,1.737,3.161,2.509,227.0,535.0
2015-05-25,WashingtonD.C.,USA,-77.0333,38.8833,[-77.5333 38.3833 -76.5333 39.3833],2.338,1.781,2.987,2.457,2.428,1.781,3.233,2.56,225.0,531.0
2015-05-26,WashingtonD.C.,USA,-77.0333,38.8833,[-77.5333 38.3833 -76.5333 39.3833],2.246,1.768,2.831,2.398,2.451,1.814,3.243,2.597,216.0,537.0
2015-05-27,WashingtonD.C.,USA,-77.0333,38.8833,[-77.5333 38.3833 -76.5333 39.3833],2.201,1.735,2.784,2.352,2.466,1.799,3.231,2.594,191.0,555.0
2015-05-28,WashingtonD.C.,USA,-77.0333,38.8833,[-77.5333 38.3833 -76.5333 39.3833],2.195,1.719,2.732,2.301,2.466,1.833,3.236,2.62,173.0,594.0
2015-05-29,WashingtonD.C.,USA,-77.0333,38.8833,[-77.5333 38.3833 -76.5333 39.3833],2.191,1.664,2.732,2.29,2.389,1.753,3.094,2.488,177.0,586.0
2015-05-30,WashingtonD.C.,USA,-77.0333,38.8833,[-77.5333 38.3833 -76.5333 39.3833],2.246,1.768,2.824,2.355,2.368,1.796,3.081,2.47,203.0,582.0
2015-05-31,WashingtonD.C.,USA,-77.0333,38.8833,[-77.5333 38.3833 -76.5333 39.3833],2.373,1.807,2.934,2.452,2.361,1.798,3.009,2.44,167.0,583.0
2015-06-01,WashingtonD.C.,USA,-77.0333,38.8833,[-77.5333 38.3833 -76.5333 39.3833],2.201,1.765,2.858,2.361,2.307,1.747,3.007,2.404,196.0,627.0
2015-06-02,WashingtonD.C.,USA,-77.0333,38.8833,[-77.5333 38.3833 -76.5333 39.3833],2.073,1.639,2.905,2.321,2.303,1.732,3.013,2.405,163.0,636.0
2015-06-03,WashingtonD.C.,USA,-77.0333,38.8833,[-77.5333 38.3833 -76.5333 39.3833],2.323,1.806,2.906,2.405,2.36,1.736,3.009,2.422,174.0,638.0
2015-06-04,WashingtonD.C.,USA,-77.0333,38.8833,[-77.5333 38.3833 -76.5333 39.3833],2.356,1.854,2.98,2.516,2.31,1.727,2.962,2.401,194.0,643.0
2015-06-05,WashingtonD.C.,USA,-77.0333,38.8833,[-77.5333 38.3833 -76.5333 39.3833],2.343,1.807,3.024,2.533,2.251,1.613,2.936,2.341,194.0,645.0
2015-06-06,WashingtonD.C.,USA,-77.0333,38.8833,[-77.5333 38.3833 -76.5333 39.3833],2.343,1.806,2.998,2.489,2.237,1.551,2.921,2.3,199.0,638.0
2015-06-07,WashingtonD.C.,USA,-77.0333,38.8833,[-77.5333 38.3833 -76.5333 39.3833],2.36,1.883,2.98,2.496,2.234,1.581,2.874,2.279,166.0,628.0
2015-06-08,WashingtonD.C.,USA,-77.0333,38.8833,[-77.5333 38.3833 -76.5333 39.3833],2.343,1.765,2.98,2.435,2.223,1.553,2.841,2.239,177.0,628.0
2015-06-09,WashingtonD.C.,USA,-77.0333,38.8833,[-77.5333 38.3833 -76.5333 39.3833],2.343,1.765,3.032,2.413,2.267,1.587,2.942,2.293,162.0,635.0
2015-06-10,WashingtonD.C.,USA,-77.0333,38.8833,[-77.5333 38.3833 -76.5333 39.3833],2.343,1.765,3.032,2.413,2.261,1.574,2.95,2.274,162.0,633.0
2015-06-11,WashingtonD.C.,USA,-77.0333,38.8833,[-77.5333 38.3833 -76.5333 39.3833],2.323,1.688,2.98,2.329,2.268,1.565,2.922,2.257,189.0,623.0
2015-06-12,WashingtonD.C.,USA,-77.0333,38.8833,[-77.5333 38.3833 -76.5333 39.3833],2.323,1.688,2.98,2.329,2.219,1.444,2.894,2.194,189.0,595.0
2015-06-13,WashingtonD.C.,USA,-77.0333,38.8833,[-77.5333 38.3833 -76.5333 39.3833],2.238,1.516,2.959,2.221,2.172,1.433,2.845,2.145,209.0,598.0
2015-06-14,WashingtonD.C.,USA,-77.0333,38.8833,[-77.5333 38.3833 -76.5333 39.3833],2.15,1.313,2.85,2.111,2.266,1.489,3.038,2.274,199.0,590.0
2015-06-15,WashingtonD.C.,USA,-77.0333,38.8833,[-77.5333 38.3833 -76.5333 39.3833],2.323,1.536,3.122,2.314,2.374,1.567,3.109,2.345,227.0,586.0